Wind_Speed
8 7 8 7 7 7 6 6 6 6 5 5 5 5 5 4 4 3 3 3 3 3 3 3 2 1 2 2 2 2 2 3 3 4 4 4 4 5 4 4 4 4 3
9 8 8 8 7 7 6 6 6 6 6 5 5 5 4 4 4 4 3 3 4 3 3 4 3 3 3 3 3 3 4 3 3 4 4 4 4 4 4 4 4 3 3
9 9 9 8 8 7 7 7 6 6 6 5 5 5 4 4 4 4 4 4 4 4 4 5 5 4 4 4 4 3 4 4 4 4 5 5 5 5 4 4 4 3 3
9 9 9 8 8 8 7 7 7 7 6 5 5 4 5 5 5 5 5 5 5 5 5 6 5 5 5 5 5 4 4 5 5 5 5 5 6 5 5 4 5 4 3
9 9 8 8 8 8 8 8 8 7 6 6 5 5 5 6 6 6 6 6 6 6 6 6 6 6 6 5 5 5 5 5 6 5 6 6 7 6 6 5 6 5 4
9 9 9 8 8 8 8 8 8 8 7 7 6 6 6 6 7 7 7 7 6 6 7 6 6 6 5 5 4 4 5 6 6 5 6 6 6 6 6 6 6 5 5
10 10 9 8 8 7 8 8 8 7 7 7 7 6 7 7 7 8 8 7 6 6 7 6 7 6 6 6 6 6 6 6 6 6 6 7 7 6 6 7 7 6 6
11 10 10 9 9 8 7 8 8 7 7 7 7 7 7 8 8 8 8 8 8 7 7 6 7 7 7 7 6 6 6 6 6 6 7 7 6 6 6 7 8 8 7
11 11 11 11 10 9 8 7 7 8 8 8 8 8 8 8 9 9 9 10 9 8 7 7 8 8 8 8 7 7 7 7 7 6 7 8 7 7 7 8 9 9 8
11 12 12 11 9 8 8 8 9 8 8 8 8 8 8 8 9 10 10 10 8 8 8 8 8 8 8 9 9 8 8 8 8 7 7 8 9 8 8 8 9 9 9
12 12 12 11 10 9 9 9 9 9 9 9 9 9 9 9 10 10 10 10 9 9 9 9 10 9 10 10 9 9 9 9 9 8 8 8 9 9 9 9 9 9 9
11 11 11 11 10 10 9 9 9 9 9 9 10 10 10 10 10 10 10 11 11 11 11 11 10 11 10 11 11 10 10 9 9 9 9 8 9 9 9 9 9 10 10
11 11 11 11 11 11 10 10 9 9 9 9 10 10 10 11 10 10 10 11 12 11 12 12 12 11 11 11 11 11 10 10 9 9 8 8 8 9 10 9 10 10 10
10 11 11 11 12 11 11 10 10 10 10 10 9 10 11 11 11 11 11 11 12 12 13 13 13 12 11 11 12 12 12 11 11 9 9 9 9 9 9 10 10 11 11
10 10 11 12 12 11 10 10 10 10 10 11 10 10 11 11 11 11 11 11 12 12 13 14 13 12 13 13 12 12 11 12 12 11 10 10 10 10 9 9 10 11 11
12 12 11 12 11 11 11 11 10 10 11 11 11 11 12 12 12 12 12 12 12 12 13 12 13 13 13 13 13 13 13 12 12 11 11 10 10 10 11 10 11 11 11
13 13 13 12 11 10 11 11 11 11 11 12 12 12 12 12 12 13 13 12 12 12 13 13 13 13 13 14 14 13 13 13 13 12 11 11 11 11 11 11 11 12 12
13 13 13 13 12 11 11 11 11 11 11 11 12 12 13 12 12 13 12 12 12 12 13 13 14 13 14 14 14 14 13 13 13 13 13 12 12 12 11 12 12 12 13
14 13 13 13 11 12 12 11 11 11 11 12 12 12 12 13 12 12 12 12 12 12 12 13 14 14 14 14 15 15 14 14 13 13 14 13 13 13 13 13 14 13 13
13 13 13 12 12 13 13 12 11 11 11 11 11 12 12 12 12 11 11 11 12 12 12 13 13 13 14 15 15 15 15 15 14 15 14 14 14 14 14 15 15 14 14
13 13 13 12 13 13 13 12 11 10 10 10 11 11 11 11 11 11 11 10 11 11 11 12 12 12 14 15 15 15 15 16 16 16 15 14 14 15 15 16 16 15 15
14 14 13 12 13 12 13 12 11 11 10 10 10 11 11 10 11 11 11 11 11 11 10 11 12 12 14 15 15 16 16 16 16 16 16 16 16 15 16 16 16 16 16
15 14 13 12 13 14 12 12 11 11 10 10 10 11 11 10 10 10 11 11 11 11 11 11 12 12 13 14 14 14 15 15 15 16 16 16 16 17 17 16 17 17 17
14 13 12 12 13 11 10 10 9 9 10 10 11 10 10 9 9 10 11 11 12 12 11 12 12 11 12 14 14 14 15 15 15 16 16 16 16 17 17 17 17 18 18
13 12 11 11 11 9 8 8 8 9 9 11 10 10 9 9 9 10 11 11 11 12 12 12 12 12 13 14 15 15 16 15 15 15 15 15 16 16 17 17 16 17 18
12 11 11 10 10 10 9 9 9 9 9 10 10 10 9 8 9 10 10 10 10 11 12 13 13 13 13 14 16 16 16 16 15 16 16 16 16 16 16 17 17 17 18
Wind_Direction
351 346 341 335 334 337 340 340 347 345 344 342 338 344 348 348 345 343 338 332 326 331 324 315 300 309 297 287 271 246 230 197 194 200 199 201 200 197 185 173 178 168 166
346 339 339 336 330 330 334 336 339 339 332 332 332 330 330 333 329 324 319 313 314 317 317 307 307 294 295 300 285 251 236 224 207 211 207 204 207 211 206 199 193 173 177
340 334 335 333 329 327 325 324 326 327 327 322 322 319 318 319 315 320 316 302 301 300 304 302 298 284 287 301 298 274 245 245 239 230 227 218 212 214 213 205 200 196 181
334 329 329 327 326 325 319 314 314 315 317 313 306 304 307 306 303 310 310 297 291 292 292 288 288 278 281 289 284 275 263 257 248 239 229 224 219 220 218 210 214 211 196
329 326 325 323 323 322 317 312 309 306 306 303 295 293 295 298 298 296 301 295 289 286 285 284 283 275 273 276 270 262 267 266 263 248 238 231 222 224 220 216 218 218 213
327 326 325 323 322 320 313 312 309 306 300 295 289 286 286 288 292 293 295 294 289 281 281 280 276 275 270 274 268 266 271 273 269 258 252 233 227 226 226 225 224 224 222
326 327 324 327 326 322 313 308 305 303 298 292 286 281 279 279 281 286 285 290 288 282 279 275 272 273 269 272 269 268 274 281 277 259 247 235 232 236 237 228 228 227 227
324 324 325 325 325 319 311 305 301 298 294 286 284 282 279 277 276 277 276 279 282 280 276 270 269 271 270 270 272 272 273 277 273 261 251 238 236 236 233 232 233 234 235
323 324 324 327 323 313 306 302 298 292 289 284 283 283 281 281 279 275 270 270 273 271 266 265 268 269 267 267 271 272 269 268 266 265 255 248 244 238 232 238 236 238 236
320 322 324 323 323 313 303 298 294 290 287 285 285 283 281 281 278 275 272 266 265 265 269 268 266 265 267 266 266 267 267 262 265 264 255 251 249 244 245 244 240 239 236
320 320 323 324 321 313 303 297 295 291 289 284 283 282 279 279 277 274 271 262 259 260 264 267 264 261 262 263 262 262 264 263 263 265 261 257 256 252 247 245 241 236 238
321 320 320 324 321 315 304 297 295 292 290 286 281 280 276 272 273 273 268 261 259 259 258 258 260 258 261 259 257 257 259 257 260 261 261 263 264 260 252 247 245 241 242
319 321 322 324 324 317 309 300 291 286 286 288 285 279 275 270 270 269 264 259 257 261 258 254 258 256 255 254 254 254 253 254 254 257 260 262 266 263 256 255 250 245 246
315 319 319 317 320 315 308 299 289 284 287 286 284 277 275 271 265 264 262 259 256 258 259 254 254 254 249 250 251 252 251 251 254 257 260 262 265 266 261 260 257 249 251
305 308 313 317 316 314 311 305 291 289 286 283 279 276 275 273 266 264 260 260 257 259 259 252 252 251 250 251 252 252 252 250 250 251 256 262 266 266 260 260 259 255 255
306 303 308 310 308 309 308 306 296 288 287 283 279 277 277 274 267 261 262 260 257 258 259 252 251 249 250 251 250 251 250 250 252 255 259 262 265 265 260 257 257 256 256
300 300 302 302 300 301 304 303 294 288 286 285 279 278 279 274 267 261 262 259 258 255 251 251 253 249 252 252 250 248 248 247 250 255 256 260 263 264 263 260 260 260 255
294 297 299 294 292 296 297 296 292 285 284 284 281 280 279 273 267 261 260 258 255 253 252 254 253 250 250 249 246 247 249 247 250 253 252 256 261 262 260 261 263 263 260
295 296 294 289 287 287 288 287 285 280 281 285 284 281 278 271 262 260 260 258 254 255 254 253 251 252 249 246 243 245 247 248 251 253 255 256 261 261 261 264 264 265 265
293 293 290 282 282 281 285 282 277 276 279 284 287 282 275 268 256 256 258 256 256 256 254 255 254 251 246 244 245 245 247 249 251 253 255 257 260 260 263 264 262 261 262
290 289 287 278 281 280 282 278 271 271 273 280 286 287 277 266 256 253 254 253 254 256 256 258 255 252 243 243 245 246 245 247 248 253 254 257 260 261 263 263 263 261 260
290 287 288 279 277 279 278 273 268 266 268 276 284 284 281 268 258 249 250 253 254 255 257 258 256 253 246 243 243 246 246 246 249 252 256 259 261 262 262 261 261 261 260
289 287 285 279 277 275 273 269 267 268 270 279 282 284 282 270 260 251 245 253 252 255 259 259 257 252 247 245 243 245 245 246 252 256 258 259 260 260 261 260 261 262 261
288 285 284 279 280 280 274 264 265 266 269 275 280 281 275 266 261 252 247 251 252 255 256 254 255 252 249 248 245 245 247 251 254 257 257 258 259 260 262 262 262 262 262
285 283 283 279 275 278 274 264 260 264 274 278 280 278 274 268 261 254 250 254 255 255 254 253 253 252 253 251 247 249 251 253 256 258 259 260 262 263 262 263 267 266 264
286 284 280 278 276 276 272 267 269 270 276 277 277 276 274 269 262 257 257 257 257 256 256 256 256 258 257 254 251 252 255 254 258 259 262 263 264 264 266 267 271 271 268
Height
5874 5874 5873 5872 5872 5871 5871 5871 5871 5871 5871 5871 5871 5872 5872 5872 5873 5873 5873 5874 5874 5874 5874 5875 5875 5875 5875 5876 5876 5877 5877 5877 5877 5878 5879 5880 5881 5882 5883 5884 5885 5885 5886
5874 5873 5872 5872 5871 5871 5871 5870 5870 5870 5871 5871 5871 5871 5872 5872 5872 5873 5873 5873 5874 5874 5874 5874 5875 5875 5875 5876 5876 5876 5876 5877 5877 5878 5879 5880 5881 5882 5883 5884 5885 5885 5886
5873 5872 5872 5871 5871 5870 5870 5870 5870 5870 5870 5870 5870 5871 5871 5871 5872 5872 5872 5873 5873 5873 5874 5874 5874 5874 5875 5875 5875 5875 5876 5876 5877 5878 5878 5879 5881 5882 5883 5884 5885 5885 5886
5872 5872 5871 5870 5870 5869 5868 5868 5869 5869 5869 5869 5869 5870 5870 5870 5871 5871 5872 5872 5872 5873 5873 5873 5873 5874 5874 5874 5874 5875 5875 5876 5876 5877 5878 5879 5880 5882 5883 5883 5884 5885 5885
5872 5871 5870 5869 5868 5868 5867 5867 5867 5867 5868 5868 5868 5869 5869 5869 5870 5870 5871 5871 5871 5872 5872 5872 5872 5873 5873 5873 5874 5874 5875 5875 5876 5877 5878 5879 5880 5881 5882 5883 5884 5884 5885
5870 5869 5868 5868 5867 5866 5866 5865 5865 5866 5866 5866 5867 5867 5868 5868 5868 5869 5869 5870 5870 5871 5871 5871 5871 5872 5872 5873 5873 5874 5874 5875 5875 5876 5877 5878 5879 5880 5881 5882 5883 5884 5885
5869 5868 5867 5866 5865 5865 5864 5864 5864 5864 5864 5865 5865 5866 5866 5866 5867 5867 5868 5868 5868 5869 5869 5870 5870 5871 5871 5871 5872 5873 5873 5874 5874 5875 5876 5877 5878 5879 5880 5881 5882 5883 5884
5867 5866 5865 5865 5864 5863 5863 5862 5862 5862 5863 5863 5863 5864 5864 5865 5865 5865 5866 5866 5867 5867 5868 5868 5869 5869 5870 5870 5871 5871 5872 5873 5873 5874 5875 5876 5877 5878 5879 5880 5881 5882 5882
5866 5864 5864 5863 5862 5861 5861 5861 5861 5861 5861 5861 5861 5862 5862 5862 5863 5863 5864 5865 5865 5866 5866 5867 5867 5868 5869 5869 5870 5870 5871 5872 5872 5873 5873 5874 5875 5876 5877 5878 5879 5880 5881
5863 5862 5862 5861 5860 5859 5859 5859 5859 5859 5859 5859 5859 5859 5860 5860 5861 5861 5862 5862 5863 5864 5864 5865 5865 5866 5867 5867 5868 5869 5869 5870 5871 5872 5872 5873 5874 5875 5876 5877 5877 5878 5879
5861 5860 5860 5859 5858 5858 5857 5857 5857 5856 5856 5856 5857 5857 5858 5858 5858 5859 5859 5860 5861 5861 5862 5863 5863 5864 5865 5865 5866 5867 5868 5868 5869 5870 5871 5872 5872 5873 5874 5875 5875 5877 5878
5859 5859 5858 5857 5856 5856 5855 5855 5854 5854 5854 5854 5854 5855 5855 5855 5855 5856 5856 5857 5858 5859 5860 5860 5861 5862 5862 5863 5864 5865 5866 5867 5868 5869 5870 5870 5871 5871 5872 5873 5873 5875 5876
5857 5857 5856 5855 5855 5854 5853 5853 5852 5852 5851 5851 5851 5852 5852 5852 5853 5853 5854 5855 5855 5856 5857 5858 5858 5859 5860 5861 5861 5863 5864 5865 5866 5867 5868 5869 5869 5870 5870 5871 5872 5873 5874
5856 5855 5854 5853 5852 5852 5851 5851 5850 5850 5849 5849 5849 5849 5849 5849 5850 5850 5851 5851 5852 5853 5854 5854 5855 5856 5857 5858 5859 5860 5862 5863 5864 5865 5866 5867 5867 5868 5868 5869 5869 5870 5871
5853 5852 5851 5851 5850 5849 5849 5848 5848 5847 5847 5846 5846 5846 5846 5847 5847 5847 5848 5849 5849 5850 5851 5851 5852 5854 5854 5855 5857 5858 5859 5861 5862 5863 5864 5865 5865 5866 5866 5867 5868 5868 5869
5851 5850 5849 5848 5848 5847 5846 5846 5845 5844 5844 5844 5843 5843 5843 5843 5844 5844 5845 5846 5846 5847 5848 5849 5850 5851 5852 5853 5854 5855 5857 5858 5859 5861 5862 5863 5863 5864 5864 5864 5865 5866 5866
5849 5847 5847 5846 5845 5844 5844 5843 5842 5841 5841 5840 5840 5840 5840 5840 5840 5841 5842 5843 5843 5844 5845 5846 5847 5848 5849 5850 5851 5852 5854 5855 5857 5858 5859 5860 5860 5861 5862 5862 5862 5863 5863
5846 5845 5844 5843 5843 5842 5841 5841 5840 5839 5838 5837 5837 5837 5837 5837 5837 5838 5839 5839 5840 5841 5842 5843 5844 5845 5846 5847 5848 5849 5851 5852 5853 5855 5856 5857 5858 5858 5859 5859 5860 5860 5860
5843 5842 5841 5840 5840 5839 5839 5838 5837 5836 5836 5835 5835 5834 5834 5834 5834 5835 5835 5836 5837 5838 5839 5840 5841 5842 5843 5844 5845 5846 5848 5849 5850 5852 5853 5854 5855 5855 5856 5856 5857 5857 5857
5840 5839 5838 5837 5837 5836 5835 5835 5834 5833 5833 5833 5832 5832 5831 5831 5831 5832 5832 5833 5834 5835 5836 5837 5838 5839 5839 5841 5842 5843 5844 5846 5847 5849 5850 5851 5851 5852 5852 5853 5853 5853 5854
5837 5836 5835 5834 5833 5832 5832 5831 5831 5831 5830 5830 5830 5829 5828 5828 5829 5829 5830 5831 5831 5832 5832 5833 5834 5835 5836 5837 5839 5840 5841 5843 5844 5845 5846 5847 5847 5848 5848 5848 5849 5849 5850
5833 5832 5831 5830 5829 5829 5828 5827 5827 5828 5828 5827 5827 5827 5826 5826 5826 5827 5828 5828 5829 5829 5830 5830 5831 5832 5833 5834 5835 5836 5838 5840 5840 5841 5842 5843 5843 5844 5844 5844 5845 5845 5845
5829 5828 5827 5827 5826 5826 5825 5824 5824 5824 5824 5825 5825 5825 5824 5823 5824 5824 5825 5826 5826 5827 5827 5827 5828 5829 5830 5831 5832 5833 5834 5836 5836 5837 5838 5839 5839 5839 5840 5840 5840 5841 5841
5826 5825 5824 5824 5823 5822 5821 5821 5822 5822 5822 5822 5822 5822 5822 5821 5821 5822 5822 5823 5823 5824 5824 5825 5825 5826 5827 5828 5829 5830 5831 5832 5833 5834 5834 5835 5835 5835 5835 5836 5836 5836 5837
5822 5821 5821 5820 5820 5820 5820 5820 5820 5820 5820 5820 5820 5819 5819 5819 5819 5819 5820 5820 5821 5821 5821 5822 5823 5823 5824 5825 5825 5826 5828 5828 5829 5830 5831 5831 5831 5831 5831 5831 5831 5832 5832
5818 5818 5817 5817 5817 5817 5817 5818 5817 5817 5817 5818 5817 5817 5817 5816 5816 5817 5817 5818 5818 5818 5819 5819 5820 5820 5821 5822 5822 5823 5824 5825 5826 5826 5827 5827 5827 5827 5827 5827 5827 5827 5827